| time (UTC) | temp F | wind direction | speed MPH | gust MPH | rain 1hr in | rain 24hr in | rain mn in | humidity % | barometer mb |
| 20260509030558 | 53 | 0 | 0.0 | 4.0 | 0.00 | 0.00 | 0.00 | 78 | 1022.2 |
| 20260509025532 | 53 | 95 | 0.0 | 4.0 | 0.00 | 0.00 | 0.00 | 78 | 1022.1 |
| 20260509025019 | 53 | 0 | 0.0 | 7.0 | 0.00 | 0.00 | 0.00 | 78 | 1022.2 |
| 20260509024506 | 53 | 0 | 0.0 | 7.0 | 0.00 | 0.00 | 0.00 | 78 | 1022.1 |
| 20260509023953 | 53 | 0 | 0.0 | 7.0 | 0.00 | 0.00 | 0.00 | 78 | 1022.1 |
| 20260509023440 | 54 | 0 | 0.0 | 0.0 | 0.00 | 0.00 | 0.00 | 78 | 1022.1 |
| 20260509022927 | 53 | 0 | 0.0 | 7.0 | 0.00 | 0.00 | 0.00 | 78 | 1022.1 |
| 20260509022414 | 53 | 0 | 0.0 | 7.0 | 0.00 | 0.00 | 0.00 | 78 | 1022.1 |
| 20260509021901 | 54 | 296 | 0.0 | 7.0 | 0.00 | 0.00 | 0.00 | 78 | 1022.1 |
| 20260509021348 | 54 | 0 | 0.0 | 5.0 | 0.00 | 0.00 | 0.00 | 78 | 1022.1 |
| 20260509020835 | 54 | 0 | 1.0 | 1.0 | 0.00 | 0.00 | 0.00 | 77 | 1022.1 |
| 20260509020322 | 54 | 295 | 1.0 | 7.0 | 0.00 | 0.00 | 0.00 | 77 | 1022.1 |
| 20260509015809 | 53 | 0 | 4.0 | 7.0 | 0.00 | 0.00 | 0.00 | 77 | 1022.0 |
| 20260509015256 | 53 | 306 | 4.0 | 7.0 | 0.00 | 0.00 | 0.00 | 77 | 1022.0 |
| 20260509014743 | 54 | 357 | 0.0 | 8.0 | 0.00 | 0.00 | 0.00 | 77 | 1021.9 |
| 20260509014230 | 53 | 327 | 0.0 | 8.0 | 0.00 | 0.00 | 0.00 | 78 | 1021.8 |
| 20260509013717 | 54 | 345 | 2.0 | 8.0 | 0.00 | 0.00 | 0.00 | 78 | 1021.8 |
| 20260509013204 | 54 | 331 | 3.0 | 9.0 | 0.00 | 0.00 | 0.00 | 77 | 1021.8 |
| 20260509012137 | 53 | 287 | 5.0 | 9.0 | 0.00 | 0.00 | 0.00 | 78 | 1022.0 |
| 20260509011625 | 53 | 319 | 5.0 | 7.0 | 0.00 | 0.00 | 0.00 | 77 | 1022.0 |
| 20260509011111 | 53 | 313 | 5.0 | 7.0 | 0.00 | 0.00 | 0.00 | 78 | 1022.1 |
| 20260509010559 | 53 | 320 | 5.0 | 7.0 | 0.00 | 0.00 | 0.00 | 77 | 1022.2 |
| 20260509010046 | 53 | 336 | 5.0 | 7.0 | 0.00 | 0.00 | 0.00 | 77 | 1022.3 |
| 20260509005019 | 53 | 327 | 4.0 | 8.0 | 0.00 | 0.00 | 0.00 | 77 | 1022.4 |
| 20260509004506 | 54 | 289 | 3.0 | 8.0 | 0.00 | 0.00 | 0.00 | 77 | 1022.4 |
| 20260509003953 | 53 | 331 | 3.0 | 7.0 | 0.00 | 0.00 | 0.00 | 78 | 1022.5 |
| 20260509003440 | 53 | 299 | 1.0 | 8.0 | 0.00 | 0.00 | 0.00 | 78 | 1022.5 |
| 20260509002414 | 53 | 292 | 5.0 | 8.0 | 0.00 | 0.00 | 0.00 | 77 | 1022.6 |
| 20260509001901 | 53 | 302 | 5.0 | 8.0 | 0.00 | 0.00 | 0.00 | 77 | 1022.6 |
| 20260509001348 | 53 | 288 | 4.0 | 7.0 | 0.00 | 0.00 | 0.00 | 77 | 1022.6 |
| 20260509000322 | 53 | 282 | 5.0 | 7.0 | 0.00 | 0.00 | 0.00 | 76 | 1022.7 |
| 20260508234743 | 53 | 301 | 6.0 | 7.0 | 0.00 | 0.00 | 0.00 | 76 | 1022.7 |
| 20260508233717 | 53 | 320 | 3.0 | 7.0 | 0.00 | 0.00 | 0.00 | 77 | 1022.9 |
| 20260508230559 | 53 | 303 | 5.0 | 9.0 | 0.00 | 0.00 | 0.00 | 76 | 1023.0 |
| 20260508222415 | 54 | 299 | 5.0 | 10.0 | 0.00 | 0.00 | 0.00 | 76 | 1022.8 |
| 20260508220323 | 53 | 289 | 4.0 | 11.0 | 0.00 | 0.00 | 0.00 | 76 | 1022.9 |
| 20260508213205 | 54 | 285 | 6.0 | 13.0 | 0.00 | 0.00 | 0.00 | 75 | 1022.7 |
| 20260508212652 | 54 | 289 | 6.0 | 13.0 | 0.00 | 0.00 | 0.00 | 74 | 1022.8 |
| 20260508212139 | 54 | 303 | 4.0 | 9.0 | 0.00 | 0.00 | 0.00 | 74 | 1022.8 |
| 20260508210600 | 55 | 298 | 4.0 | 11.0 | 0.00 | 0.00 | 0.00 | 74 | 1022.9 |
| 20260508210048 | 54 | 275 | 5.0 | 11.0 | 0.00 | 0.00 | 0.00 | 75 | 1022.9 |
| 20260508205534 | 54 | 261 | 3.0 | 10.0 | 0.00 | 0.00 | 0.00 | 75 | 1022.8 |
| 20260508204508 | 54 | 310 | 6.0 | 10.0 | 0.00 | 0.00 | 0.00 | 74 | 1022.8 |
| 20260508203956 | 54 | 268 | 3.0 | 6.0 | 0.00 | 0.00 | 0.00 | 75 | 1022.8 |
| 20260508203442 | 55 | 303 | 5.0 | 11.0 | 0.00 | 0.00 | 0.00 | 75 | 1022.8 |
| 20260508202416 | 53 | 271 | 5.0 | 11.0 | 0.00 | 0.00 | 0.00 | 75 | 1022.5 |
| 20260508201350 | 54 | 292 | 6.0 | 10.0 | 0.00 | 0.00 | 0.00 | 75 | 1022.4 |
| 20260508193206 | 54 | 305 | 5.0 | 9.0 | 0.00 | 0.00 | 0.00 | 76 | 1022.6 |
| 20260508192140 | 53 | 303 | 5.0 | 9.0 | 0.00 | 0.00 | 0.00 | 76 | 1022.6 |
| 20260508190048 | 53 | 310 | 6.0 | 9.0 | 0.00 | 0.00 | 0.00 | 75 | 1022.5 |
| 20260508185535 | 53 | 277 | 5.0 | 9.0 | 0.00 | 0.00 | 0.00 | 76 | 1022.5 |
| 20260508185022 | 53 | 310 | 5.0 | 7.0 | 0.00 | 0.00 | 0.00 | 76 | 1022.5 |
| 20260508184509 | 53 | 277 | 1.0 | 10.0 | 0.00 | 0.00 | 0.00 | 76 | 1022.6 |
| 20260508183956 | 53 | 309 | 3.0 | 10.0 | 0.00 | 0.00 | 0.00 | 77 | 1022.6 |
| 20260508183443 | 53 | 301 | 7.0 | 10.0 | 0.00 | 0.00 | 0.00 | 77 | 1022.7 |
| 20260508182930 | 53 | 273 | 4.0 | 9.0 | 0.00 | 0.00 | 0.00 | 77 | 1022.7 |
| 20260508182417 | 53 | 277 | 1.0 | 9.0 | 0.00 | 0.00 | 0.00 | 78 | 1022.7 |
| 20260508181904 | 53 | 273 | 4.0 | 9.0 | 0.00 | 0.00 | 0.00 | 78 | 1022.6 |
| 20260508181351 | 52 | 238 | 3.0 | 7.0 | 0.00 | 0.00 | 0.00 | 78 | 1022.7 |
| 20260508180838 | 52 | 287 | 2.0 | 8.0 | 0.00 | 0.00 | 0.00 | 78 | 1022.7 |
| 20260508180325 | 52 | 291 | 5.0 | 8.0 | 0.00 | 0.00 | 0.00 | 78 | 1022.7 |
| 20260508175812 | 52 | 0 | 1.0 | 8.0 | 0.00 | 0.00 | 0.00 | 78 | 1022.8 |
| 20260508175259 | 52 | 268 | 0.0 | 9.0 | 0.00 | 0.00 | 0.00 | 78 | 1022.9 |
| 20260508174746 | 52 | 249 | 3.0 | 9.0 | 0.00 | 0.00 | 0.00 | 78 | 1022.9 |
| 20260508174233 | 52 | 245 | 0.0 | 9.0 | 0.00 | 0.00 | 0.00 | 78 | 1022.8 |
| 20260508173720 | 51 | 226 | 0.0 | 5.0 | 0.00 | 0.00 | 0.00 | 78 | 1022.8 |
| 20260508173207 | 51 | 215 | 0.0 | 5.0 | 0.00 | 0.00 | 0.00 | 78 | 1022.7 |
| 20260508172654 | 52 | 260 | 0.0 | 8.0 | 0.00 | 0.00 | 0.00 | 78 | 1022.7 |
| 20260508171628 | 51 | 222 | 1.0 | 7.0 | 0.00 | 0.00 | 0.00 | 78 | 1022.7 |
| 20260508171115 | 51 | 263 | 0.0 | 5.0 | 0.00 | 0.00 | 0.00 | 79 | 1022.7 |
| 20260508170049 | 51 | 184 | 0.0 | 6.0 | 0.00 | 0.00 | 0.00 | 79 | 1022.6 |
| 20260508165536 | 51 | 217 | 3.0 | 6.0 | 0.00 | 0.00 | 0.00 | 79 | 1022.6 |
| 20260508165023 | 51 | 0 | 0.0 | 9.0 | 0.00 | 0.00 | 0.00 | 80 | 1022.6 |
| 20260508164510 | 51 | 247 | 0.0 | 9.0 | 0.00 | 0.00 | 0.00 | 80 | 1022.5 |
| 20260508163444 | 51 | 184 | 2.0 | 8.0 | 0.00 | 0.00 | 0.00 | 80 | 1022.4 |
| 20260508162931 | 51 | 242 | 1.0 | 8.0 | 0.00 | 0.00 | 0.00 | 80 | 1022.3 |
| 20260508162418 | 51 | 254 | 0.0 | 6.0 | 0.00 | 0.00 | 0.00 | 80 | 1022.2 |
| 20260508161352 | 51 | 252 | 0.0 | 5.0 | 0.00 | 0.00 | 0.00 | 80 | 1022.2 |
| 20260508160839 | 51 | 0 | 0.0 | 5.0 | 0.00 | 0.00 | 0.00 | 81 | 1022.1 |
| 20260508160326 | 51 | 166 | 1.0 | 5.0 | 0.00 | 0.00 | 0.00 | 81 | 1022.1 |
| 20260508155813 | 51 | 0 | 0.0 | 0.0 | 0.00 | 0.00 | 0.00 | 81 | 1022.1 |
| 20260508155300 | 51 | 0 | 0.0 | 0.0 | 0.00 | 0.00 | 0.00 | 81 | 1022.2 |
| 20260508154747 | 51 | 0 | 0.0 | 7.0 | 0.00 | 0.00 | 0.00 | 81 | 1022.0 |
| 20260508154234 | 51 | 0 | 0.0 | 7.0 | 0.00 | 0.00 | 0.00 | 82 | 1022.1 |
| 20260508153721 | 51 | 221 | 2.0 | 7.0 | 0.00 | 0.00 | 0.00 | 82 | 1022.1 |
| 20260508153208 | 51 | 243 | 0.0 | 2.0 | 0.00 | 0.00 | 0.00 | 82 | 1022.0 |
| 20260508152655 | 51 | 0 | 0.0 | 0.0 | 0.00 | 0.00 | 0.00 | 82 | 1022.1 |
| 20260508152142 | 51 | 0 | 0.0 | 4.0 | 0.00 | 0.00 | 0.00 | 83 | 1022.0 |
| 20260508151629 | 51 | 0 | 0.0 | 4.0 | 0.00 | 0.00 | 0.00 | 83 | 1021.9 |
| 20260508151117 | 51 | 224 | 1.0 | 4.0 | 0.00 | 0.00 | 0.00 | 83 | 1021.8 |
| 20260508150603 | 51 | 0 | 0.0 | 0.0 | 0.00 | 0.00 | 0.00 | 83 | 1021.8 |
| 20260508150051 | 51 | 0 | 0.0 | 0.0 | 0.00 | 0.00 | 0.00 | 83 | 1021.6 |
| 20260508145537 | 51 | 0 | 0.0 | 0.0 | 0.00 | 0.00 | 0.00 | 84 | 1021.5 |
| 20260508145024 | 51 | 0 | 0.0 | 0.0 | 0.00 | 0.00 | 0.00 | 84 | 1021.5 |
| 20260508144511 | 51 | 0 | 0.0 | 0.0 | 0.00 | 0.00 | 0.00 | 84 | 1021.3 |
| 20260508143958 | 50 | 0 | 0.0 | 0.0 | 0.00 | 0.00 | 0.00 | 85 | 1021.0 |
| 20260508143445 | 50 | 0 | 0.0 | 0.0 | 0.00 | 0.00 | 0.00 | 85 | 1021.0 |
| 20260508142932 | 50 | 0 | 0.0 | 0.0 | 0.00 | 0.00 | 0.00 | 85 | 1021.2 |
| 20260508142419 | 50 | 0 | 0.0 | 0.0 | 0.00 | 0.00 | 0.00 | 85 | 1021.2 |
| 20260508141906 | 50 | 0 | 0.0 | 0.0 | 0.00 | 0.00 | 0.00 | 86 | 1020.7 |
| 20260508141353 | 50 | 0 | 0.0 | 0.0 | 0.00 | 0.00 | 0.00 | 86 | 1020.7 |
| 20260508140840 | 50 | 0 | 0.0 | 0.0 | 0.00 | 0.00 | 0.00 | 86 | 1020.6 |
| 20260508140327 | 50 | 0 | 0.0 | 0.0 | 0.00 | 0.00 | 0.00 | 86 | 1020.8 |
| 20260508135814 | 50 | 0 | 0.0 | 0.0 | 0.00 | 0.00 | 0.00 | 86 | 1020.9 |
| 20260508135301 | 50 | 0 | 0.0 | 0.0 | 0.00 | 0.00 | 0.00 | 86 | 1020.9 |
| 20260508134748 | 50 | 0 | 0.0 | 0.0 | 0.00 | 0.00 | 0.00 | 86 | 1020.8 |
| 20260508134235 | 49 | 0 | 0.0 | 0.0 | 0.00 | 0.00 | 0.00 | 86 | 1020.8 |
| 20260508133722 | 50 | 0 | 0.0 | 0.0 | 0.00 | 0.00 | 0.00 | 86 | 1020.7 |
| 20260508133209 | 50 | 0 | 0.0 | 0.0 | 0.00 | 0.00 | 0.00 | 86 | 1020.8 |
| 20260508132656 | 50 | 0 | 0.0 | 0.0 | 0.00 | 0.00 | 0.00 | 86 | 1020.8 |
| 20260508132143 | 50 | 0 | 0.0 | 0.0 | 0.00 | 0.00 | 0.00 | 86 | 1020.9 |
| 20260508131117 | 50 | 0 | 0.0 | 0.0 | 0.00 | 0.00 | 0.00 | 86 | 1020.9 |
| 20260508130604 | 49 | 0 | 0.0 | 0.0 | 0.00 | 0.00 | 0.00 | 86 | 1020.8 |
| 20260508125538 | 50 | 0 | 0.0 | 0.0 | 0.00 | 0.00 | 0.00 | 87 | 1020.9 |
| 20260508125026 | 50 | 0 | 0.0 | 0.0 | 0.00 | 0.00 | 0.00 | 87 | 1020.9 |
| 20260508124511 | 50 | 0 | 0.0 | 0.0 | 0.00 | 0.00 | 0.00 | 87 | 1021.0 |
| 20260508123446 | 50 | 0 | 0.0 | 6.0 | 0.00 | 0.00 | 0.00 | 87 | 1021.0 |
| 20260508122932 | 49 | 0 | 0.0 | 6.0 | 0.00 | 0.00 | 0.00 | 87 | 1021.1 |
| 20260508121354 | 49 | 0 | 0.0 | 0.0 | 0.00 | 0.00 | 0.00 | 88 | 1020.8 |
| 20260508120328 | 49 | 0 | 0.0 | 4.0 | 0.00 | 0.00 | 0.00 | 88 | 1020.9 |
| 20260508115306 | 49 | 263 | 0.0 | 3.0 | 0.00 | 0.00 | 0.00 | 89 | 1020.7 |
| 20260508114749 | 49 | 263 | 1.0 | 3.0 | 0.00 | 0.00 | 0.00 | 89 | 1020.6 |
| 20260508114235 | 49 | 0 | 0.0 | 0.0 | 0.00 | 0.00 | 0.00 | 89 | 1020.5 |
| 20260508113722 | 49 | 0 | 0.0 | 0.0 | 0.00 | 0.00 | 0.00 | 89 | 1020.5 |
| 20260508112143 | 49 | 0 | 0.0 | 4.0 | 0.00 | 0.00 | 0.00 | 89 | 1020.4 |
| 20260508111631 | 49 | 0 | 0.0 | 4.0 | 0.00 | 0.00 | 0.00 | 89 | 1020.2 |
| 20260508111117 | 49 | 170 | 0.0 | 4.0 | 0.00 | 0.00 | 0.00 | 89 | 1020.2 |
| 20260508110605 | 49 | 0 | 0.0 | 0.0 | 0.00 | 0.00 | 0.00 | 90 | 1020.0 |
| 20260508110051 | 49 | 0 | 0.0 | 3.0 | 0.00 | 0.00 | 0.00 | 90 | 1020.0 |
| 20260508105538 | 49 | 0 | 0.0 | 3.0 | 0.00 | 0.00 | 0.00 | 90 | 1020.0 |
| 20260508105025 | 49 | 155 | 0.0 | 3.0 | 0.00 | 0.00 | 0.00 | 90 | 1020.0 |
| 20260508104604 | 48 | 0 | 0.0 | 0.0 | 0.00 | 0.00 | 0.00 | 90 | 1020.1 |
| 20260508104512 | 48 | 0 | 0.0 | 0.0 | 0.00 | 0.00 | 0.00 | 90 | 1020.1 |
| 20260508103959 | 48 | 0 | 0.0 | 0.0 | 0.00 | 0.00 | 0.00 | 90 | 1020.0 |
| 20260508103446 | 48 | 0 | 0.0 | 0.0 | 0.00 | 0.00 | 0.00 | 90 | 1020.1 |
| 20260508102933 | 48 | 0 | 0.0 | 0.0 | 0.00 | 0.00 | 0.00 | 90 | 1020.1 |
| 20260508102420 | 48 | 0 | 0.0 | 0.0 | 0.00 | 0.00 | 0.00 | 90 | 1020.0 |
| 20260508101907 | 48 | 0 | 0.0 | 0.0 | 0.00 | 0.00 | 0.00 | 90 | 1019.9 |
| 20260508101354 | 48 | 0 | 0.0 | 0.0 | 0.00 | 0.00 | 0.00 | 90 | 1019.9 |
| 20260508100933 | 48 | 0 | 0.0 | 0.0 | 0.00 | 0.00 | 0.00 | 90 | 1019.8 |
| 20260508100842 | 48 | 0 | 0.0 | 0.0 | 0.00 | 0.00 | 0.00 | 90 | 1019.8 |
| 20260508100328 | 48 | 0 | 0.0 | 0.0 | 0.00 | 0.00 | 0.00 | 90 | 1019.7 |
| 20260508095815 | 48 | 0 | 0.0 | 0.0 | 0.00 | 0.00 | 0.00 | 90 | 1019.7 |
| 20260508095306 | 48 | 0 | 0.0 | 0.0 | 0.00 | 0.00 | 0.00 | 90 | 1019.7 |
| 20260508094749 | 48 | 0 | 0.0 | 0.0 | 0.00 | 0.00 | 0.00 | 90 | 1019.5 |
| 20260508094236 | 48 | 0 | 0.0 | 0.0 | 0.00 | 0.00 | 0.00 | 90 | 1019.7 |
| 20260508093723 | 48 | 0 | 0.0 | 0.0 | 0.00 | 0.00 | 0.00 | 90 | 1019.7 |
| 20260508093210 | 48 | 0 | 0.0 | 0.0 | 0.00 | 0.00 | 0.00 | 90 | 1019.8 |
| 20260508092657 | 48 | 0 | 0.0 | 0.0 | 0.00 | 0.00 | 0.00 | 90 | 1019.7 |
| 20260508092144 | 48 | 0 | 0.0 | 0.0 | 0.00 | 0.00 | 0.00 | 90 | 1019.7 |
| 20260508091631 | 48 | 0 | 0.0 | 0.0 | 0.00 | 0.00 | 0.00 | 90 | 1019.6 |
| 20260508091120 | 48 | 0 | 0.0 | 0.0 | 0.00 | 0.00 | 0.00 | 90 | 1019.6 |
| 20260508090605 | 47 | 0 | 0.0 | 0.0 | 0.00 | 0.00 | 0.00 | 90 | 1019.6 |
| 20260508090052 | 47 | 0 | 0.0 | 0.0 | 0.00 | 0.00 | 0.00 | 90 | 1019.5 |
| 20260508085539 | 47 | 0 | 0.0 | 0.0 | 0.00 | 0.00 | 0.00 | 90 | 1019.5 |
| 20260508085026 | 47 | 0 | 0.0 | 0.0 | 0.00 | 0.00 | 0.00 | 90 | 1019.3 |
| 20260508084000 | 47 | 0 | 0.0 | 0.0 | 0.00 | 0.00 | 0.00 | 90 | 1019.3 |
| 20260508083447 | 47 | 0 | 0.0 | 0.0 | 0.00 | 0.00 | 0.00 | 90 | 1019.3 |
| 20260508082935 | 47 | 0 | 0.0 | 0.0 | 0.00 | 0.00 | 0.00 | 90 | 1019.1 |
| 20260508082422 | 47 | 0 | 0.0 | 0.0 | 0.00 | 0.00 | 0.00 | 90 | 1019.0 |
| 20260508081908 | 47 | 0 | 0.0 | 0.0 | 0.00 | 0.00 | 0.00 | 90 | 1018.9 |
| 20260508081355 | 47 | 0 | 0.0 | 0.0 | 0.00 | 0.00 | 0.00 | 90 | 1019.0 |
| 20260508080845 | 47 | 0 | 0.0 | 0.0 | 0.00 | 0.00 | 0.00 | 90 | 1019.0 |
| 20260508080329 | 46 | 0 | 0.0 | 0.0 | 0.00 | 0.00 | 0.00 | 90 | 1019.0 |
| 20260508075816 | 46 | 0 | 0.0 | 0.0 | 0.00 | 0.00 | 0.00 | 90 | 1018.8 |
| 20260508075308 | 46 | 0 | 0.0 | 0.0 | 0.00 | 0.00 | 0.00 | 89 | 1018.9 |
| 20260508074750 | 46 | 0 | 0.0 | 0.0 | 0.00 | 0.00 | 0.00 | 89 | 1019.0 |
| 20260508074237 | 46 | 0 | 0.0 | 0.0 | 0.00 | 0.00 | 0.00 | 89 | 1019.0 |
| 20260508073211 | 46 | 0 | 0.0 | 0.0 | 0.00 | 0.00 | 0.00 | 89 | 1019.0 |
| 20260508072658 | 45 | 0 | 0.0 | 0.0 | 0.00 | 0.00 | 0.00 | 89 | 1019.0 |
| 20260508071632 | 45 | 0 | 0.0 | 0.0 | 0.00 | 0.00 | 0.00 | 88 | 1018.9 |
| 20260508071120 | 45 | 0 | 0.0 | 0.0 | 0.00 | 0.00 | 0.00 | 88 | 1018.8 |
| 20260508070606 | 45 | 0 | 0.0 | 0.0 | 0.00 | 0.00 | 0.00 | 88 | 1018.8 |
| 20260508070053 | 45 | 0 | 0.0 | 0.0 | 0.00 | 0.00 | 0.00 | 88 | 1018.7 |
| 20260508065540 | 45 | 0 | 0.0 | 0.0 | 0.00 | 0.00 | 0.00 | 88 | 1018.7 |
| 20260508065027 | 45 | 0 | 0.0 | 0.0 | 0.00 | 0.00 | 0.00 | 87 | 1018.8 |
| 20260508064001 | 45 | 0 | 0.0 | 0.0 | 0.00 | 0.00 | 0.00 | 87 | 1018.7 |
| 20260508063448 | 45 | 0 | 0.0 | 0.0 | 0.00 | 0.00 | 0.00 | 87 | 1018.8 |
| 20260508062935 | 45 | 0 | 0.0 | 0.0 | 0.00 | 0.00 | 0.00 | 87 | 1018.7 |
| 20260508062422 | 45 | 0 | 0.0 | 0.0 | 0.00 | 0.00 | 0.00 | 86 | 1018.6 |
| 20260508061909 | 45 | 0 | 0.0 | 0.0 | 0.00 | 0.00 | 0.00 | 86 | 1018.6 |
| 20260508061356 | 45 | 0 | 0.0 | 0.0 | 0.00 | 0.00 | 0.00 | 86 | 1018.5 |
| 20260508060843 | 45 | 0 | 0.0 | 0.0 | 0.00 | 0.00 | 0.00 | 86 | 1018.5 |
| 20260508060330 | 46 | 0 | 0.0 | 0.0 | 0.00 | 0.00 | 0.00 | 85 | 1018.6 |
| 20260508055817 | 46 | 0 | 0.0 | 0.0 | 0.00 | 0.00 | 0.00 | 85 | 1018.6 |
| 20260508055306 | 46 | 0 | 0.0 | 0.0 | 0.00 | 0.00 | 0.00 | 85 | 1018.5 |
| 20260508054751 | 46 | 0 | 0.0 | 0.0 | 0.00 | 0.00 | 0.00 | 85 | 1018.5 |
| 20260508053725 | 46 | 0 | 0.0 | 0.0 | 0.00 | 0.00 | 0.00 | 84 | 1018.5 |
| 20260508053212 | 46 | 0 | 0.0 | 0.0 | 0.00 | 0.00 | 0.00 | 84 | 1018.5 |
| 20260508052659 | 46 | 0 | 0.0 | 0.0 | 0.00 | 0.00 | 0.00 | 84 | 1018.5 |
| 20260508052146 | 46 | 0 | 0.0 | 0.0 | 0.00 | 0.00 | 0.00 | 83 | 1018.5 |
| 20260508051633 | 46 | 0 | 0.0 | 0.0 | 0.00 | 0.00 | 0.00 | 83 | 1018.5 |
| 20260508051121 | 47 | 0 | 0.0 | 0.0 | 0.00 | 0.00 | 0.00 | 83 | 1018.4 |
| 20260508050607 | 47 | 0 | 0.0 | 0.0 | 0.00 | 0.00 | 0.00 | 82 | 1018.4 |
| 20260508050054 | 47 | 0 | 0.0 | 0.0 | 0.00 | 0.00 | 0.00 | 82 | 1018.4 |
| 20260508045541 | 47 | 0 | 0.0 | 0.0 | 0.00 | 0.00 | 0.00 | 82 | 1018.5 |
| 20260508045028 | 47 | 0 | 0.0 | 0.0 | 0.00 | 0.00 | 0.00 | 82 | 1018.6 |
| 20260508044515 | 48 | 0 | 0.0 | 0.0 | 0.00 | 0.00 | 0.00 | 82 | 1018.5 |
| 20260508044002 | 48 | 0 | 0.0 | 0.0 | 0.00 | 0.00 | 0.00 | 82 | 1018.5 |
| 20260508043449 | 48 | 0 | 0.0 | 0.0 | 0.00 | 0.00 | 0.00 | 81 | 1018.5 |
| 20260508042936 | 48 | 0 | 0.0 | 0.0 | 0.00 | 0.00 | 0.00 | 81 | 1018.3 |
| 20260508042423 | 48 | 0 | 0.0 | 0.0 | 0.00 | 0.00 | 0.00 | 81 | 1018.4 |
| 20260508041910 | 48 | 0 | 0.0 | 0.0 | 0.00 | 0.00 | 0.00 | 81 | 1018.4 |
| 20260508041357 | 48 | 0 | 0.0 | 0.0 | 0.00 | 0.00 | 0.00 | 81 | 1018.3 |
| 20260508040844 | 48 | 0 | 0.0 | 0.0 | 0.00 | 0.00 | 0.00 | 80 | 1018.2 |
| 20260508040331 | 49 | 0 | 0.0 | 0.0 | 0.00 | 0.00 | 0.00 | 80 | 1018.3 |
| 20260508035818 | 49 | 0 | 0.0 | 0.0 | 0.00 | 0.00 | 0.00 | 80 | 1018.3 |
| 20260508035306 | 49 | 0 | 0.0 | 0.0 | 0.00 | 0.00 | 0.00 | 80 | 1018.3 |
| 20260508034752 | 50 | 0 | 0.0 | 0.0 | 0.00 | 0.00 | 0.00 | 79 | 1018.3 |
| 20260508034239 | 50 | 0 | 0.0 | 0.0 | 0.00 | 0.00 | 0.00 | 79 | 1018.4 |
| 20260508033726 | 50 | 0 | 0.0 | 0.0 | 0.00 | 0.00 | 0.00 | 79 | 1018.3 |
| 20260508033213 | 50 | 0 | 0.0 | 0.0 | 0.00 | 0.00 | 0.00 | 79 | 1018.2 |
| 20260508032700 | 51 | 0 | 0.0 | 0.0 | 0.00 | 0.00 | 0.00 | 79 | 1018.2 |
| 20260508032147 | 51 | 0 | 0.0 | 0.0 | 0.00 | 0.00 | 0.00 | 78 | 1018.1 |
| 20260508031634 | 51 | 0 | 0.0 | 0.0 | 0.00 | 0.00 | 0.00 | 78 | 1018.1 |